Location: *
(46.1833°N, 22.7667°E)
Time: 09:03:51
(UTC+00:00)

Okean 1 Rocket - Pass Details

Date: 17 September 2019
Orbit: 608 x 634 km, 82.5° (Epoch: 14 October)

Event Time Altitude Azimuth Distance (km) Brightness Sun altitude
Rises 17:00:47 0° 156° (SSE) 2,854 6.1 -4.9°
Reaches altitude 10° 17:03:16 10° 144° (SE) 1,956 5.2 -5.3°
Maximum altitude 17:06:49 25° 88° (E) 1,235 4.0 -5.9°
Drops below altitude 10° 17:10:23 10° 33° (NNE) 1,976 5.4 -6.5°
Sets 17:12:54 0° 21° (NNE) 2,890 6.4 -6.9°
